Flag for Israel Weather past 2 weeks in Ra'anana, Israel

Now
88 °F

Sunny.


Feels Like: 86 °F
Forecast: 78 / 86 °F
Wind: 1 mph from North

Location: Dov Airport

Current Time: Sep 17, 2014 at 11:02:53 AM

Latest Report: Sep 17, 2014 at 9:50 AM


Visibility: 10 mi

Pressure: 29.80 "Hg

Humidity: 31%

Dew point: 54 °F

Location of Ra'ananaLocation

Historic Weather in Ra'anana — Graph

°F

Ra'anana temperature yesterday

Maximum temperature yesterday: 86 °F (at 10:50 AM)
Minimum temperature yesterday: 75 °F (at 5:50 AM)
Average temperature yesterday: 82 °F

Past Weeks' High & Low Weather Summary

 TemperatureHumidityPressure
High88 °F (Sep 2, 2:50 PM)83% (Sep 5, 4:50 AM)29.92 "Hg (Sep 5, 4:50 AM)
Low75 °F (Sep 10, 6:50 AM)31% (Sep 17, 9:50 AM)29.71 "Hg (Sep 5, 4:50 AM)
Average83 °F63%29.83 "Hg
* Reported Sep 2 9:50 AM — Sep 17 9:50 AM, Ra'anana, Weather by CustomWeather, © 2014

Note: Actual official high and low records may vary slightly from our data, if they occured in-between our weather recording intervals... More about our weather records

Advertising

Ra'anana weather history for previous 24 hours

 ConditionsComfort  
Time TempWeatherWind HumidityBarometerVisibility
9:50 AM
Sep 17
88 °FSunny.1 mph31%29.80 "Hg10 mi
8:50 AM82 °FSunny.2 mph45%29.80 "Hg10 mi
7:50 AM81 °FSunny.1 mph54%29.77 "Hg10 mi
6:50 AM77 °FClear.1 mph65%29.77 "Hg10 mi
5:50 AM75 °FClear.2 mph74%29.77 "Hg10 mi
5:00 AM77 °FClear.2 mph74%29.77 "Hg10 mi
10:50 PM
Sep 16
81 °FClear.3 mph70%29.83 "Hg10 mi
9:50 PM81 °FClear.No wind70%29.83 "Hg10 mi
8:50 PM81 °FClear.3 mph70%29.83 "Hg10 mi
7:50 PM82 °FClear.5 mph66%29.83 "Hg10 mi
6:50 PM82 °FSunny.6 mph66%29.83 "Hg10 mi
5:50 PM84 °FPassing clouds.8 mph62%29.83 "HgN/A
4:50 PM84 °FPassing clouds.9 mph62%29.83 "HgN/A
3:50 PM86 °FPassing clouds.10 mph59%29.83 "HgN/A
2:50 PM86 °FPassing clouds.10 mph59%29.83 "HgN/A
1:50 PM86 °FPassing clouds.10 mph62%29.83 "HgN/A
12:50 PM84 °FPassing clouds.13 mph66%29.86 "HgN/A
11:50 AM84 °FPassing clouds.9 mph62%29.86 "HgN/A
Weather by CustomWeather, © 2014

See weather overviewHow to use our weather pages